Regional Weather Roundup
Issued by NWS

Home | Current Version | Previous Version | Text Only | Print | Product List | Glossary Off
Versions: 1 2 3 4 5 6 7 8 9 10 11 12 13 14 15 16 17 18 19 20 21 22 23 24 25 26 27 28 29 30 31 32 33 34 35 36 37 38 39 40 41 42 43 44 45 46 47 48 49 50

707
ASUS43 KLMK 211202
RWRKY
KENTUCKY REGIONAL WEATHER ROUNDUP
NATIONAL WEATHER SERVICE LOUISVILLE KY
700 AM EST SUN JAN 21 2018

NOTE "FAIR" INDICATES FEW OR NO CLOUDS BELOW 12,000 FEET
WITH NO SIGNIFICANT WEATHER AND/OR OBSTRUCTIONS TO VISIBILITY.

KYZ001>023-026-027-061>063-070>075-211300-
WESTERN AND SOUTH CENTRAL KENTUCKY

CITY           SKY/WX    TMP DP  RH WIND       PRES   REMARKS
PADUCAH        CLOUDY    52  44  74 S8        30.07R
HENDERSON      CLOUDY    47  41  80 S9        30.08R
OWENSBORO      CLOUDY    45  38  76 SE5       30.10R
HOPKINSVILLE   MOCLDY    52  40  65 S7        30.11R
BOWLING GREEN  MOCLDY    51  40  65 S10       30.15R
GLASGOW        NOT AVBL
$$

KYZ024-025-028>034-038-045-046-053-211300-
NORTH CENTRAL KENTUCKY

CITY           SKY/WX    TMP DP  RH WIND       PRES   REMARKS
LOUISVILLE/SDF MOCLDY    53  40  61 S7        30.11R
LOUISVILLE/LOU CLOUDY    50  41  71 S7        30.12R
FORT KNOX      NOT AVBL
$$

KYZ035>037-039>044-047>052-055>060-089>105-211300-
NORTHEAST KENTUCKY

CITY           SKY/WX    TMP DP  RH WIND       PRES   REMARKS
LEXINGTON      CLOUDY    49  39  68 S8        30.14S
COVINGTON      CLOUDY    46  39  76 S6        30.09S
FRANKFORT      CLOUDY    50  37  61 S7        30.12R
$$

KYZ054-064>069-076>088-106>120-211300-
SOUTHEAST KENTUCKY

CITY           SKY/WX    TMP DP  RH WIND       PRES   REMARKS
JACKSON        CLOUDY    48  38  68 SW3       30.18R
LONDON         CLOUDY    45  36  70 CALM      30.19R
SOMERSET       NOT AVBL
MIDDLESBORO    CLOUDY    39  36  91 CALM      30.24R
MONTICELLO     CLOUDY    49  38  65 W13       30.20R
$$





USA.gov is the U.S. government's official web portal to all federal, state and local government web resources and services.